Location: Aiyekoto
(8.4333°N, 4.3667°E)
Time: 13:34:19
(UTC+00:00)

CZ-3 R/B - Pass Details

Date: 07 June 2020
Orbit: 358 x 10253 km, 28.4° (Epoch: 07 July)

Event Time Altitude Azimuth Distance (km) Brightness Sun altitude
Rises 04:15:27 0° 271° (W) 12,747 6.7 -16.1°
Reaches altitude 10° 04:32:05 10° 281° (WNW) 9,356 6.0 -12.4°
Maximum altitude 04:54:19 29° 335° (NNW) 3,596 4.4 -7.4°
Drops below altitude 10° 05:01:49 10° 35° (NE) 3,190 5.2 -5.8°
Sets 05:04:04 0° 48° (NE) 3,629 6.2 -5.2°
